Flag for Moldova Weather past 2 weeks in Tiraspol, Moldova

36 °F


Feels Like: 27 °F
Forecast: 34 / 50 °F
Wind: 12 mph from East

Location: Chisinau International Airport

Current Time: Nov 28, 2015 at 1:17:16 AM

Latest Report: Nov 28, 2015 at 12:30 AM

Visibility: 3 mi

Pressure: 30.07 "Hg

Humidity: 81%

Dew point: 30 °F

Location of TiraspolLocation

Historic Weather in Tiraspol — Graph


Tiraspol temperature yesterday

Maximum temperature yesterday: 36 °F (at 12:00 AM)
Minimum temperature yesterday: 36 °F (at 12:00 AM)
Average temperature yesterday: 36 °F

Past Weeks' High & Low Weather Summary

High63 °F (Nov 22, 10:30 AM)93% (Nov 17, 6:00 AM)30.33 "Hg (Nov 17, 6:00 AM)
Low25 °F (Nov 17, 6:00 AM)32% (Nov 15, 2:00 PM)29.24 "Hg (Nov 22, 4:30 AM)
Average45 °F69%29.92 "Hg
* Reported Midnight between Nov 12 and Nov 13 — Midnight between Nov 27 and Nov 28, Tiraspol, Weather by CustomWeather, © 2015

Note: Actual official high and low records may vary slightly from our data, if they occured in-between our weather recording intervals... More about our weather records


Tiraspol weather history for previous 24 hours

Time TempWeatherWind HumidityBarometerVisibility
12:00 AM
Sat, Nov 28
36 °FFog.10 mph81%30.09 "Hg3 mi
11:30 PM
Fri, Nov 27
36 °FFog.9 mph81%30.09 "Hg3 mi
11:00 PM36 °FFog.14 mph81%30.09 "Hg3 mi
10:30 PM36 °FFog.12 mph81%30.09 "Hg3 mi
10:00 PM36 °FFog.12 mph81%30.12 "Hg3 mi
9:30 PM36 °FFog.12 mph81%30.12 "Hg3 mi
9:00 PM36 °FLow clouds.12 mph81%30.12 "Hg4 mi
8:30 PM36 °FLow clouds.9 mph81%30.12 "Hg4 mi
8:00 PM36 °FLow clouds.12 mph81%30.12 "Hg4 mi
7:30 PM36 °FOvercast.10 mph81%30.12 "Hg4 mi
7:00 PM36 °FOvercast.10 mph81%30.12 "Hg4 mi
6:30 PM36 °FMostly cloudy.9 mph81%30.12 "Hg6 mi
6:00 PM36 °FMostly cloudy.9 mph81%30.12 "Hg4 mi
5:30 PM36 °FMostly cloudy.9 mph81%30.12 "Hg4 mi
5:00 PM36 °FFog.8 mph87%30.09 "Hg2 mi
4:30 PM36 °FFog.7 mph87%30.12 "Hg3 mi
4:00 PM36 °FFog.8 mph81%30.12 "Hg3 mi
3:30 PM36 °FMostly cloudy.9 mph81%30.09 "Hg4 mi
3:00 PM36 °FMostly cloudy.12 mph81%30.09 "Hg4 mi
2:30 PM36 °FMostly cloudy.12 mph81%30.09 "Hg5 mi
2:00 PM36 °FLight rain. Mostly cloudy.13 mph81%30.09 "Hg4 mi
1:30 PM36 °FLight rain. Fog.12 mph81%30.09 "Hg3 mi
1:00 PM36 °FLight rain. Fog.12 mph81%30.09 "Hg2 mi
12:30 PM36 °FLight rain. Fog.13 mph81%30.09 "Hg2 mi
12:00 PM36 °FMostly cloudy.14 mph81%30.09 "Hg4 mi
11:30 AM36 °FMostly cloudy.12 mph81%30.09 "Hg5 mi
11:00 AM36 °FLight rain. Mostly cloudy.9 mph81%30.09 "Hg4 mi
10:30 AM36 °FLight rain. Fog.12 mph81%30.09 "Hg3 mi
10:00 AM36 °FMostly cloudy.10 mph81%30.09 "Hg4 mi
9:00 AM36 °FOvercast.8 mph81%30.07 "Hg4 mi
8:30 AM36 °FFog.9 mph81%30.07 "Hg3 mi
8:00 AM36 °FOvercast.9 mph81%30.07 "Hg4 mi
7:30 AM36 °FOvercast.9 mph81%30.04 "Hg4 mi
7:00 AM36 °FOvercast.9 mph81%30.04 "Hg4 mi
6:00 AM36 °FLight rain. Low clouds.10 mph81%30.01 "Hg4 mi
5:30 AM36 °FLight rain. Mostly cloudy.12 mph81%30.01 "Hg4 mi
5:00 AM36 °FMostly cloudy.10 mph81%30.01 "Hg4 mi
4:30 AM36 °FFog.12 mph81%30.01 "Hg2 mi
4:00 AM36 °FLight rain. Fog.10 mph87%30.01 "Hg2 mi
3:30 AM36 °FLight rain. Fog.12 mph87%30.01 "Hg2 mi
3:00 AM36 °FLight rain. Fog.13 mph87%29.98 "Hg2 mi
2:30 AM36 °FLight rain. Fog.13 mph87%30.01 "Hg2 mi
2:00 AM36 °FLight rain. Fog.12 mph87%29.98 "Hg2 mi
1:30 AM36 °FLight rain. Fog.12 mph87%29.98 "Hg2 mi
1:00 AM36 °FLight rain. Fog.13 mph87%29.98 "Hg2 mi
Weather by CustomWeather, © 2015

See weather overviewHow to use our weather pages